Location: Hilton Head Island
(32.2163°N, 80.7526°W)
Time: 09:59:24
(UTC-05:00)

Explorer 7 - Pass Details

Date: 23 February 2026
Orbit: 430 x 542 km, 50.2° (Epoch: 5 March)

Event Time Altitude Azimuth Distance (km) Brightness Sun altitude
Rises 20:36:18 0° 301° (WNW) 2,554 11.2 -30.4°
Reaches altitude 10° 20:38:37 10° 290° (WNW) 1,692 10.2 -30.8°
Enters shadow 20:40:15 20° 272° (W) 1,186 9.2 -31.2°
